Simultaneous Nadir Overpasses (SNOs) Predictions

Prediction of SNOs over PacNW region [( 10.00, 139.50) to ( 22.70, 165.60)] between AQUA and NPP Satellites:

Table of predicted SNOs over PacNW region for the next 30.0 days since TLE Epoch: 3/11/2023
Index Date (AQUA) Time (AQUA) AQUA Lat,Lon Date (NPP) Time (NPP) NPP Lat,Lon Distance(km) Time Diff (sec)
1 03/11/2023 15:18:41 22.59, 160.21 03/11/2023 15:19:08 23.61, 155.85 460.05 27
2 03/14/2023 03:38:47 22.67, 148.29 03/14/2023 03:35:21 21.87, 144.44 406.56 206
3 03/22/2023 02:42:29 18.74, 163.09 03/22/2023 02:43:34 17.62, 158.15 537.00 65
4 03/24/2023 16:17:50 20.38, 145.17 03/24/2023 16:17:12 21.21, 140.95 448.78 38
5 04/04/2023 03:40:42 20.40, 148.39 04/04/2023 03:41:20 19.33, 143.46 529.12 38
6 04/06/2023 15:39:26 10.04, 153.28 04/06/2023 15:35:57 10.68, 149.56 414.04 209
